Muscle Shoals, AL

12:03 AM CST on December 11, 2019 (GMT -0600)
Northwest Alabama Regional

Weather History for KMSL - October, 2019

Change the Weather History Date:

Monday, October 7, 2019

  Actual Average Record
Temperature  
Mean Temperature 69 °F 65 °F  
Max Temperature 76 °F 77 °F 93 °F (1916)
Min Temperature 61 °F 53 °F 34 °F (1991)
Degree Days  
Heating Degree Days 0 3  
Month to date heating degree days 0 17  
Since 1 July heating degree days 0 32  
Cooling Degree Days 4 3  
Month to date cooling degree days 109 24  
Year to date cooling degree days 2467 1826  
Growing Degree Days 18 (Base 50)    
Moisture  
Dew Point 63 °F    
Average Humidity 81    
Maximum Humidity 93    
Minimum Humidity 69    
Precipitation  
Precipitation 1.04 in 0.10 in 2.21 in (1975)
Month to date precipitation 1.04 0.75  
Year to date precipitation 47.56 40.18  
Snow  
Snow 0.00 in - - ()
Month to date snowfall 0.0  
Since 1 July snowfall 0.0  
Since 1 September snowfall 0.0  
Snow Depth 0.00 in    
Sea Level Pressure  
Sea Level Pressure 30.09 in    
Wind  
Wind Speed 6 mph (NNE)    
Max Wind Speed 25 mph    
Max Gust Speed 30 mph    
Visibility 7 miles    
Events Rain , Thunderstorm    
T = Trace of Precipitation, MM = Missing Value Source: NWS Daily Summary

Daily Weather History Graph

Daily Weather History Graph

Search for Another Location

Airport or City:

Astronomy

Oct. 07, 2019 Rise Set
Actual Time 6:49 AM CDT 6:26 PM CDT
Civil Twilight 6:24 AM CDT 6:51 PM CDT
Nautical Twilight 5:55 AM CDT 7:20 PM CDT
Astronomical Twilight 5:25 AM CDT 7:50 PM CDT
Moon 3:31 PM CDT (10/7) 12:59 AM CDT (10/7)
Length of Visible Light 12h 27m
Length of Day
11h 36m
Waxing Gibbous, 69% of the Moon is Illuminated
Oct 7
Waxing Gibbous
Oct 13
Full
Oct 21
Last Quarter
Oct 27
New
Nov 4
First Quarter

Hourly Weather History & Observations

Time (CDT) Temp. Dew Point Humidity Pressure Visibility Wind Dir Wind Speed Gust Speed Precip Events Conditions
12:53 AM 75.9 °F 64.9 °F 69% 30.04 in 10.0 mi SSE 8.1 mph - N/A   Overcast
1:53 AM 75.9 °F 64.9 °F 69% 30.04 in 10.0 mi South 9.2 mph - N/A   Overcast
2:24 AM 73.9 °F 66.9 °F 79% 30.09 in 10.0 mi West 17.3 mph 23.0 mph 0.00 in Rain , Thunderstorm Light Rain
2:37 AM 69.1 °F 64.0 °F 84% 30.09 in 1.2 mi Variable 6.9 mph 29.9 mph 0.27 in Rain , Thunderstorm Heavy Thunderstorms and Rain
2:48 AM 68.0 °F 64.4 °F 88% 30.09 in 1.5 mi WSW 9.2 mph - 0.43 in Rain , Thunderstorm Heavy Thunderstorms and Rain
2:53 AM 68.0 °F 64.9 °F 90% 30.07 in 1.8 mi SW 6.9 mph - 0.46 in Rain , Thunderstorm Heavy Thunderstorms and Rain
2:57 AM 68.0 °F 64.9 °F 90% 30.09 in 3.0 mi SW 8.1 mph - 0.01 in Rain , Thunderstorm Heavy Thunderstorms and Rain
3:27 AM 68.0 °F 64.9 °F 90% 30.07 in 7.0 mi WNW 5.8 mph - 0.07 in Rain Rain
3:35 AM 68.0 °F 64.9 °F 90% 30.07 in 7.0 mi WNW 3.5 mph - 0.08 in Rain , Thunderstorm Light Thunderstorms and Rain
3:50 AM 68.0 °F 64.4 °F 88% 30.07 in 7.0 mi Calm Calm - 0.10 in Rain Rain
3:53 AM 68.0 °F 66.0 °F 93% 30.05 in 8.0 mi Calm Calm - 0.10 in Rain Light Rain
4:22 AM 68.0 °F 66.0 °F 93% 30.07 in 8.0 mi SSE 8.1 mph - 0.06 in Rain Rain
4:48 AM 68.0 °F 66.2 °F 94% 30.07 in 10.0 mi ESE 4.6 mph - 0.06 in   Overcast
4:53 AM 68.0 °F 66.0 °F 93% 30.06 in 10.0 mi Calm Calm - 0.06 in   Overcast
5:53 AM 68.0 °F 66.0 °F 93% 30.09 in 6.0 mi SSW 3.5 mph - 0.06 in Rain Rain
6:53 AM 68.0 °F 64.9 °F 90% 30.09 in 9.0 mi SE 5.8 mph - 0.08 in Rain Rain
7:53 AM 66.9 °F 64.9 °F 93% 30.08 in 10.0 mi SE 6.9 mph - 0.11 in   Scattered Clouds
8:53 AM 66.9 °F 64.9 °F 93% 30.11 in 10.0 mi South 3.5 mph - 0.05 in Rain Light Rain
9:53 AM 68.0 °F 64.9 °F 90% 30.09 in 9.0 mi NNE 4.6 mph - 0.05 in Rain Light Rain
10:35 AM 69.1 °F 64.9 °F 87% 30.13 in 10.0 mi NW 4.6 mph - 0.01 in   Mostly Cloudy
10:53 AM 69.1 °F 64.0 °F 84% 30.13 in 10.0 mi Calm Calm - 0.01 in Rain Light Rain
11:53 AM 70.0 °F 64.0 °F 81% 30.09 in 10.0 mi SSE 6.9 mph - 0.01 in   Overcast
12:06 PM 70.0 °F 66.0 °F 87% 30.10 in 10.0 mi ESE 5.8 mph - N/A   Overcast
12:21 PM 69.1 °F 64.9 °F 87% 30.09 in 10.0 mi SE 5.8 mph - N/A   Overcast
12:53 PM 70.0 °F 64.9 °F 84% 30.07 in 10.0 mi ENE 4.6 mph - N/A   Overcast
1:23 PM 66.9 °F 62.1 °F 84% 30.11 in 7.0 mi North 11.5 mph 17.3 mph 0.01 in Rain Light Rain
1:28 PM 64.9 °F 62.1 °F 90% 30.11 in 2.5 mi North 10.4 mph - 0.02 in Rain Rain
1:53 PM 64.9 °F 62.1 °F 90% 30.09 in 2.5 mi NNE 6.9 mph - 0.04 in Rain Light Rain
1:59 PM 64.0 °F 61.0 °F 90% 30.10 in 3.0 mi NNE 8.1 mph - 0.00 in Rain Light Rain
2:11 PM 64.9 °F 61.0 °F 87% 30.10 in 4.0 mi North 9.2 mph - 0.00 in   Overcast
2:53 PM 64.9 °F 61.0 °F 87% 30.09 in 10.0 mi North 5.8 mph - 0.00 in   Overcast
3:53 PM 64.0 °F 60.1 °F 87% 30.09 in 6.0 mi North 9.2 mph - 0.01 in   Overcast
4:17 PM 64.0 °F 60.1 °F 87% 30.11 in 8.0 mi North 8.1 mph - N/A   Overcast
4:42 PM 64.0 °F 60.1 °F 87% 30.11 in 10.0 mi NNE 10.4 mph - N/A   Overcast
4:53 PM 64.0 °F 60.1 °F 87% 30.10 in 5.0 mi NNE 6.9 mph - N/A   Overcast
5:22 PM 63.0 °F 60.1 °F 90% 30.11 in 2.5 mi North 9.2 mph - 0.00 in Rain Light Rain
5:34 PM 63.0 °F 60.1 °F 90% 30.11 in 5.0 mi NNE 6.9 mph - 0.00 in   Overcast
5:42 PM 63.0 °F 60.1 °F 90% 30.11 in 4.0 mi North 8.1 mph - 0.00 in   Overcast
5:53 PM 63.0 °F 59.0 °F 87% 30.10 in 4.0 mi NNE 6.9 mph - 0.00 in   Overcast
6:07 PM 63.0 °F 59.0 °F 87% 30.11 in 10.0 mi North 5.8 mph - N/A   Overcast
6:53 PM 62.1 °F 57.9 °F 86% 30.10 in 10.0 mi NNE 5.8 mph - N/A   Overcast
7:53 PM 62.1 °F 57.9 °F 86% 30.12 in 10.0 mi NNE 6.9 mph - N/A   Overcast
8:53 PM 62.1 °F 57.9 °F 86% 30.13 in 10.0 mi NE 8.1 mph - N/A   Overcast
9:53 PM 62.1 °F 57.0 °F 84% 30.13 in 10.0 mi NE 10.4 mph - N/A   Overcast
10:53 PM 62.1 °F 55.9 °F 80% 30.12 in 10.0 mi ENE 8.1 mph - N/A   Overcast
11:53 PM 62.1 °F 57.0 °F 84% 30.11 in 10.0 mi NE 9.2 mph - N/A   Overcast